Stündliche Wetter Abramovka

Heute, 23 Juni, Mittwoch

Zeit Temperatur Niederschläge Wind Luftdruck Luftfeuchtigkeit
00:00 +24°C° 0 mm 3 m/S 750 mmHg 68%
01:00 +24°C° 0 mm 3 m/S 750 mmHg 68%
02:00 +22°C° 0 mm 3 m/S 750 mmHg 67%
03:00 +22°C° 0 mm 3 m/S 750 mmHg 67%
04:00 +22°C° 0 mm 3 m/S 750 mmHg 69%
05:00 +22°C° 0 mm 3 m/S 750 mmHg 70%
06:00 +24°C° 0 mm 3 m/S 750 mmHg 72%
07:00 +25°C° 0 mm 3 m/S 750 mmHg 65%
08:00 +27°C° 0 mm 4 m/S 750 mmHg 59%
09:00 +29°C° 0 mm 4 m/S 750 mmHg 52%
10:00 +32°C° 0 mm 4 m/S 750 mmHg 49%
11:00 +33°C° 0 mm 4 m/S 750 mmHg 45%
12:00 +34°C° 0 mm 4 m/S 750 mmHg 41%
13:00 +35°C° 0 mm 4 m/S 750 mmHg 41%
14:00 +35°C° 0 mm 4 m/S 750 mmHg 42%
15:00 +35°C° 0 mm 4 m/S 750 mmHg 42%
16:00 +34°C° 0 mm 3 m/S 750 mmHg 49%
17:00 +33°C° 0 mm 3 m/S 750 mmHg 56%
18:00 +31°C° 0 mm 3 m/S 750 mmHg 63%
19:00 +30°C° 0 mm 3 m/S 750 mmHg 65%
20:00 +28°C° 0 mm 3 m/S 750 mmHg 66%
21:00 +27°C° 0 mm 3 m/S 750 mmHg 67%
22:00 +26°C° 0 mm 3 m/S 750 mmHg 68%
23:00 +26°C° 0 mm 3 m/S 750 mmHg 69%

Morgen, 24 Juni, Donnerstag

Zeit Temperatur Niederschläge Wind Luftdruck Luftfeuchtigkeit
00:00 +25°C° 0 mm 3 m/S 750 mmHg 70%
01:00 +24°C° 0 mm 3 m/S 750 mmHg 72%
02:00 +24°C° 0 mm 3 m/S 750 mmHg 73%
03:00 +22°C° 0 mm 3 m/S 750 mmHg 75%
04:00 +24°C° 0 mm 3 m/S 750 mmHg 76%
05:00 +24°C° 0 mm 2 m/S 750 mmHg 77%
06:00 +25°C° 0 mm 2 m/S 750 mmHg 77%
07:00 +26°C° 0 mm 2 m/S 750 mmHg 72%
08:00 +28°C° 0 mm 3 m/S 750 mmHg 67%
09:00 +30°C° 0 mm 3 m/S 750 mmHg 61%
10:00 +31°C° 0 mm 3 m/S 750 mmHg 57%
11:00 +33°C° 0 mm 3 m/S 750 mmHg 52%
12:00 +34°C° 0 mm 3 m/S 750 mmHg 47%
13:00 +34°C° 0 mm 3 m/S 750 mmHg 46%
14:00 +35°C° 0 mm 3 m/S 750 mmHg 44%
15:00 +35°C° 0 mm 3 m/S 750 mmHg 42%
16:00 +34°C° 0 mm 3 m/S 750 mmHg 47%
17:00 +33°C° 0 mm 3 m/S 749 mmHg 51%
18:00 +33°C° 0 mm 3 m/S 749 mmHg 56%
19:00 +30°C° 0 mm 3 m/S 749 mmHg 61%
20:00 +28°C° 0 mm 3 m/S 749 mmHg 66%
21:00 +26°C° 0 mm 3 m/S 749 mmHg 70%
22:00 +26°C° 0 mm 3 m/S 749 mmHg 70%
23:00 +25°C° 0 mm 3 m/S 749 mmHg 69%

übermorgen, 25 Juni, Freitag

Zeit Temperatur Niederschläge Wind Luftdruck Luftfeuchtigkeit
00:00 +25°C° 0 mm 3 m/S 749 mmHg 69%
01:00 +24°C° 0 mm 3 m/S 749 mmHg 70%
02:00 +24°C° 0 mm 3 m/S 749 mmHg 71%
03:00 +22°C° 0 mm 3 m/S 749 mmHg 73%
04:00 +23°C° 0 mm 2 m/S 749 mmHg 75%
05:00 +24°C° 0 mm 2 m/S 749 mmHg 76%
06:00 +24°C° 0 mm 2 m/S 749 mmHg 78%
07:00 +26°C° 0 mm 3 m/S 749 mmHg 72%
08:00 +28°C° 0 mm 3 m/S 749 mmHg 66%
09:00 +29°C° 0 mm 3 m/S 749 mmHg 60%
10:00 +30°C° 0 mm 3 m/S 749 mmHg 56%
11:00 +31°C° 0 mm 3 m/S 749 mmHg 52%
12:00 +33°C° 0 mm 3 m/S 749 mmHg 48%
13:00 +34°C° 0 mm 3 m/S 748 mmHg 46%
14:00 +34°C° 0 mm 3 m/S 748 mmHg 44%
15:00 +34°C° 0 mm 3 m/S 748 mmHg 43%
16:00 +34°C° 0 mm 3 m/S 748 mmHg 47%
17:00 +33°C° 0 mm 3 m/S 748 mmHg 51%
18:00 +32°C° 0 mm 2 m/S 747 mmHg 55%
19:00 +30°C° 0 mm 2 m/S 747 mmHg 60%
20:00 +28°C° 0 mm 2 m/S 747 mmHg 65%
21:00 +27°C° 0 mm 2 m/S 747 mmHg 70%
22:00 +26°C° 0 mm 2 m/S 747 mmHg 72%
23:00 +25°C° 0 mm 2 m/S 747 mmHg 73%

26 Juni, Samstag

Zeit Temperatur Niederschläge Wind Luftdruck Luftfeuchtigkeit
00:00 +25°C° 0 mm 2 m/S 747 mmHg 75%
01:00 +24°C° 0 mm 2 m/S 747 mmHg 75%
02:00 +24°C° 0 mm 2 m/S 747 mmHg 75%
03:00 +23°C° 0 mm 2 m/S 747 mmHg 75%
04:00 +23°C° 0 mm 2 m/S 747 mmHg 76%
05:00 +24°C° 0 mm 2 m/S 747 mmHg 76%
06:00 +24°C° 0 mm 2 m/S 747 mmHg 76%
07:00 +26°C° 0 mm 2 m/S 747 mmHg 70%
08:00 +28°C° 0 mm 2 m/S 747 mmHg 65%
09:00 +29°C° 0 mm 2 m/S 747 mmHg 59%
10:00 +30°C° 0 mm 2 m/S 747 mmHg 55%
11:00 +32°C° 0 mm 2 m/S 747 mmHg 51%
12:00 +34°C° 0 mm 3 m/S 747 mmHg 48%
13:00 +34°C° 0 mm 2 m/S 746 mmHg 46%
14:00 +34°C° 0 mm 2 m/S 746 mmHg 44%
15:00 +35°C° 0 mm 2 m/S 746 mmHg 42%
16:00 +35°C° 0 mm 2 m/S 746 mmHg 46%
17:00 +34°C° 0 mm 2 m/S 746 mmHg 49%
18:00 +34°C° 0 mm 2 m/S 746 mmHg 53%
19:00 +31°C° 0 mm 2 m/S 746 mmHg 57%
20:00 +29°C° 0 mm 2 m/S 746 mmHg 62%
21:00 +27°C° 0 mm 2 m/S 745 mmHg 66%
22:00 +26°C° 0 mm 2 m/S 745 mmHg 68%
23:00 +26°C° 0 mm 2 m/S 745 mmHg 69%

27 Juni, Sonntag

Zeit Temperatur Niederschläge Wind Luftdruck Luftfeuchtigkeit
00:00 +25°C° 0 mm 2 m/S 745 mmHg 71%
01:00 +25°C° 0 mm 2 m/S 746 mmHg 72%
02:00 +24°C° 0 mm 3 m/S 746 mmHg 72%
03:00 +24°C° 0 mm 3 m/S 746 mmHg 72%
04:00 +24°C° 0 mm 3 m/S 746 mmHg 72%
05:00 +25°C° 0 mm 2 m/S 746 mmHg 72%
06:00 +25°C° 0 mm 2 m/S 746 mmHg 72%
07:00 +27°C° 0 mm 3 m/S 746 mmHg 66%
08:00 +29°C° 0 mm 3 m/S 746 mmHg 61%
09:00 +31°C° 0 mm 3 m/S 746 mmHg 55%
10:00 +33°C° 0 mm 3 m/S 746 mmHg 52%
11:00 +34°C° 0 mm 3 m/S 746 mmHg 48%
12:00 +35°C° 0 mm 4 m/S 746 mmHg 44%
13:00 +36°C° 0 mm 4 m/S 746 mmHg 43%
14:00 +36°C° 0 mm 4 m/S 746 mmHg 42%
15:00 +36°C° 0 mm 4 m/S 746 mmHg 40%
16:00 +36°C° 0 mm 4 m/S 746 mmHg 44%
17:00 +35°C° 0 mm 4 m/S 746 mmHg 48%
18:00 +34°C° 0 mm 3 m/S 745 mmHg 52%
19:00 +33°C° 0 mm 3 m/S 745 mmHg 56%
20:00 +30°C° 0 mm 3 m/S 745 mmHg 61%
21:00 +28°C° 0 mm 3 m/S 745 mmHg 65%
22:00 +27°C° 0 mm 3 m/S 745 mmHg 66%
23:00 +26°C° 0 mm 3 m/S 745 mmHg 68%

28 Juni, Montag

Zeit Temperatur Niederschläge Wind Luftdruck Luftfeuchtigkeit
00:00 +25°C° 0 mm 3 m/S 745 mmHg 69%
01:00 +25°C° 0 mm 3 m/S 745 mmHg 70%
02:00 +24°C° 0 mm 3 m/S 745 mmHg 72%
03:00 +24°C° 0 mm 3 m/S 745 mmHg 73%
04:00 +24°C° 0 mm 3 m/S 745 mmHg 73%
05:00 +24°C° 0 mm 3 m/S 745 mmHg 74%
06:00 +25°C° 0 mm 3 m/S 744 mmHg 74%
07:00 +27°C° 0 mm 4 m/S 744 mmHg 68%
08:00 +28°C° 0 mm 4 m/S 744 mmHg 61%
09:00 +30°C° 0 mm 4 m/S 745 mmHg 54%
10:00 +33°C° 0 mm 5 m/S 745 mmHg 51%
11:00 +34°C° 0 mm 5 m/S 744 mmHg 47%
12:00 +35°C° 0 mm 5 m/S 744 mmHg 43%
13:00 +35°C° 0 mm 5 m/S 744 mmHg 43%
14:00 +36°C° 0 mm 5 m/S 744 mmHg 42%
15:00 +36°C° 0 mm 5 m/S 744 mmHg 42%
16:00 +36°C° 0 mm 5 m/S 743 mmHg 45%
17:00 +35°C° 0 mm 4 m/S 743 mmHg 49%
18:00 +34°C° 0 mm 4 m/S 743 mmHg 53%
19:00 +32°C° 0.9 mm 4 m/S 743 mmHg 62%
20:00 +28°C° 0.9 mm 4 m/S 743 mmHg 71%
21:00 +25°C° 0.9 mm 5 m/S 744 mmHg 81%
22:00 +23°C° 3.5 mm 4 m/S 743 mmHg 83%
23:00 +22°C° 3.5 mm 3 m/S 743 mmHg 86%
Mehr zeigen

Wir brauchen deine Erlaubnis

Meteoprog und unser Service Anbieter werden persönliche Daten aufbewahren, so wie Cookies, Geräte Bezeichnung oder ähnliche Technologien von deinem Gerät und Prozess, so wie Persönliche Daten Inhalte und Werbungen, genauso wie social Media und den Verkehr zu analysieren.

  • Aufbewahrung und/oder Zugang zu deiner Geräte Informationen.

    Cookies, Geräte Bezeichnung oder andere Informationen, können aufbewahrt oder Zugang zu deinem Gerät erhalten, für den Grund, der oben angegeben wird.

  • Personalisierte Werbung und Inhalte, Messungen, Einblick in das Publikum und Produkt Entwicklung.

    Werbungen und Inhalte können personalisiert werden, basierend auf ein Profil. Mehr Daten können besser personalisierte Werbungen und Inhalte hinzufügen. Werbung und Inhalte können gezeigt und gemessen werden. Einblicke über das Publikum, welche die Werbung gesehen haben und den Inhalt, können abgeleitet werden. So wie Daten können genutzt werden, um es zu verbessern oder die Benutzer Erfahrung zu verbessern das System und die Software.

Wenn du “Ich stimme zu” klickst, erlaubst du uns, die Cookies zu benutzen die Geräte Bezeichnung, den Web oder ähnliche Technologien zu benutzen. Deine Settings, können in deinem Gerät bei deinem Browser geändert werden.

Für den bestimmten Zweck, berechtigten Interessen beruhen darauf, mehr als auf den Inhalt. Du kannst mehr darüber in unseren Privaten und Cookie Politik lesen.